• In Hungary
  • List of Countries
  • For 7 days
  • Water Temperature
  • Satellite Maps
  • Weather Map
  • News
  • Weather Widgets
  • user-avatar
    Login

    Hourly Weather San Antonio

    Today, 13 December, Wednesday

    Time Temperature Precipitation Wind Pressure Humidity
    00:00 +10°C° 0 mm 1 mps 749 mmHg 47%
    01:00 +9°C° 0 mm 0 mps 748 mmHg 48%
    02:00 +8°C° 0 mm 0 mps 748 mmHg 48%
    03:00 +9°C° 0 mm 1 mps 748 mmHg 49%
    04:00 +9°C° 0 mm 1 mps 748 mmHg 49%
    05:00 +9°C° 0 mm 1 mps 747 mmHg 50%
    06:00 +8°C° 0 mm 2 mps 748 mmHg 50%
    07:00 +9°C° 0 mm 2 mps 748 mmHg 50%
    08:00 +10°C° 0 mm 2 mps 748 mmHg 50%
    09:00 +12°C° 0 mm 2 mps 747 mmHg 47%
    10:00 +13°C° 0 mm 3 mps 747 mmHg 43%
    11:00 +14°C° 0 mm 3 mps 747 mmHg 40%
    12:00 +15°C° 0 mm 4 mps 746 mmHg 39%
    13:00 +17°C° 0 mm 4 mps 745 mmHg 38%
    14:00 +18°C° 0 mm 4 mps 744 mmHg 36%
    15:00 +15°C° 0 mm 4 mps 744 mmHg 40%
    16:00 +14°C° 0 mm 3 mps 744 mmHg 44%
    17:00 +13°C° 0 mm 3 mps 743 mmHg 48%
    18:00 +12°C° 0 mm 3 mps 743 mmHg 48%
    19:00 +12°C° 0 mm 3 mps 743 mmHg 48%
    20:00 +12°C° 0 mm 3 mps 743 mmHg 48%
    21:00 +13°C° 0 mm 2 mps 743 mmHg 48%
    22:00 +12°C° 0 mm 2 mps 743 mmHg 48%
    23:00 +12°C° 0 mm 2 mps 743 mmHg 48%

    Tomorrow, 14 December, Thursday

    Time Temperature Precipitation Wind Pressure Humidity
    00:00 +12°C° 0 mm 2 mps 743 mmHg 49%
    01:00 +12°C° 0 mm 1 mps 743 mmHg 49%
    02:00 +12°C° 0 mm 1 mps 742 mmHg 49%
    03:00 +11°C° 0 mm 1 mps 742 mmHg 49%
    04:00 +11°C° 0 mm 1 mps 742 mmHg 50%
    05:00 +10°C° 0 mm 0 mps 742 mmHg 50%
    06:00 +12°C° 0 mm 1 mps 742 mmHg 49%
    07:00 +13°C° 0 mm 1 mps 743 mmHg 48%
    08:00 +14°C° 0 mm 1 mps 743 mmHg 46%
    09:00 +15°C° 0 mm 2 mps 744 mmHg 43%
    10:00 +17°C° 0 mm 2 mps 744 mmHg 39%
    11:00 +18°C° 0 mm 2 mps 744 mmHg 36%
    12:00 +18°C° 0 mm 3 mps 744 mmHg 37%
    13:00 +18°C° 0 mm 3 mps 743 mmHg 38%
    14:00 +19°C° 0 mm 4 mps 743 mmHg 39%
    15:00 +17°C° 0 mm 4 mps 743 mmHg 42%
    16:00 +15°C° 0 mm 4 mps 744 mmHg 44%
    17:00 +14°C° 0 mm 4 mps 744 mmHg 47%
    18:00 +14°C° 0 mm 5 mps 745 mmHg 47%
    19:00 +13°C° 0 mm 5 mps 746 mmHg 47%
    20:00 +13°C° 0 mm 6 mps 746 mmHg 47%
    21:00 +11°C° 0 mm 6 mps 747 mmHg 46%
    22:00 +11°C° 0 mm 6 mps 748 mmHg 45%
    23:00 +10°C° 0 mm 6 mps 748 mmHg 44%

    Day after tomorrow, 15 December, Friday

    Time Temperature Precipitation Wind Pressure Humidity
    00:00 +10°C° 0 mm 6 mps 748 mmHg 44%
    01:00 +9°C° 0 mm 5 mps 749 mmHg 44%
    02:00 +9°C° 0 mm 5 mps 749 mmHg 44%
    03:00 +9°C° 0 mm 5 mps 749 mmHg 45%
    04:00 +9°C° 0 mm 5 mps 749 mmHg 46%
    05:00 +8°C° 0 mm 4 mps 749 mmHg 47%
    06:00 +9°C° 0 mm 5 mps 750 mmHg 47%
    07:00 +9°C° 0 mm 5 mps 751 mmHg 47%
    08:00 +9°C° 0 mm 6 mps 751 mmHg 47%
    09:00 +12°C° 0 mm 5 mps 751 mmHg 44%
    10:00 +13°C° 0 mm 5 mps 751 mmHg 40%
    11:00 +14°C° 0 mm 5 mps 752 mmHg 36%
    12:00 +15°C° 0 mm 5 mps 751 mmHg 34%
    13:00 +15°C° 0 mm 4 mps 750 mmHg 32%
    14:00 +15°C° 0 mm 4 mps 750 mmHg 30%
    15:00 +14°C° 0 mm 3 mps 750 mmHg 33%
    16:00 +14°C° 0 mm 2 mps 749 mmHg 35%
    17:00 +13°C° 0 mm 2 mps 749 mmHg 38%
    18:00 +12°C° 0 mm 2 mps 750 mmHg 39%
    19:00 +12°C° 0 mm 1 mps 750 mmHg 40%
    20:00 +11°C° 0 mm 1 mps 750 mmHg 41%
    21:00 +11°C° 0 mm 1 mps 750 mmHg 42%
    22:00 +11°C° 0 mm 1 mps 750 mmHg 43%
    23:00 +10°C° 0 mm 1 mps 750 mmHg 44%

    16 December, Saturday

    Time Temperature Precipitation Wind Pressure Humidity
    00:00 +10°C° 0 mm 1 mps 749 mmHg 46%
    01:00 +10°C° 0 mm 1 mps 749 mmHg 48%
    02:00 +10°C° 0 mm 1 mps 748 mmHg 50%
    03:00 +9°C° 0 mm 1 mps 748 mmHg 51%
    04:00 +9°C° 0 mm 1 mps 748 mmHg 53%
    05:00 +9°C° 0 mm 1 mps 747 mmHg 55%
    06:00 +10°C° 0 mm 1 mps 748 mmHg 54%
    07:00 +9°C° 0 mm 2 mps 748 mmHg 54%
    08:00 +10°C° 0 mm 2 mps 748 mmHg 54%
    09:00 +11°C° 0 mm 3 mps 747 mmHg 49%
    10:00 +13°C° 0 mm 3 mps 747 mmHg 44%
    11:00 +14°C° 0 mm 4 mps 746 mmHg 39%
    12:00 +14°C° 0 mm 4 mps 745 mmHg 40%
    13:00 +14°C° 0 mm 4 mps 744 mmHg 40%
    14:00 +14°C° 0 mm 4 mps 744 mmHg 41%
    15:00 +13°C° 0 mm 4 mps 743 mmHg 46%
    16:00 +12°C° 0 mm 4 mps 743 mmHg 51%
    17:00 +12°C° 0 mm 4 mps 743 mmHg 56%
    18:00 +11°C° 0.3 mm 3 mps 743 mmHg 64%
    19:00 +12°C° 0.3 mm 2 mps 743 mmHg 72%
    20:00 +12°C° 0.3 mm 2 mps 743 mmHg 80%
    21:00 +12°C° 0.8 mm 1 mps 743 mmHg 83%
    22:00 +12°C° 0.8 mm 1 mps 743 mmHg 86%
    23:00 +12°C° 0.8 mm 1 mps 742 mmHg 89%

    17 December, Sunday

    Time Temperature Precipitation Wind Pressure Humidity
    00:00 +12°C° 0.1 mm 1 mps 742 mmHg 90%
    01:00 +12°C° 0.1 mm 1 mps 741 mmHg 90%
    02:00 +12°C° 0.1 mm 2 mps 741 mmHg 90%
    03:00 +12°C° 0 mm 2 mps 741 mmHg 91%
    04:00 +12°C° 0 mm 2 mps 741 mmHg 93%
    05:00 +12°C° 0 mm 2 mps 741 mmHg 94%
    06:00 +12°C° 0 mm 2 mps 742 mmHg 91%
    07:00 +13°C° 0 mm 2 mps 742 mmHg 88%
    08:00 +14°C° 0 mm 2 mps 743 mmHg 85%
    09:00 +15°C° 0 mm 2 mps 743 mmHg 77%
    10:00 +17°C° 0 mm 2 mps 743 mmHg 69%
    11:00 +19°C° 0 mm 3 mps 742 mmHg 61%
    12:00 +20°C° 0 mm 2 mps 742 mmHg 57%
    13:00 +21°C° 0 mm 2 mps 742 mmHg 53%
    14:00 +21°C° 0 mm 2 mps 741 mmHg 49%
    15:00 +20°C° 0 mm 2 mps 741 mmHg 54%
    16:00 +20°C° 0 mm 1 mps 741 mmHg 59%
    17:00 +18°C° 0 mm 1 mps 741 mmHg 63%
    18:00 +18°C° 0 mm 1 mps 742 mmHg 67%
    19:00 +16°C° 0 mm 1 mps 742 mmHg 70%
    20:00 +15°C° 0 mm 1 mps 743 mmHg 74%
    21:00 +15°C° 0 mm 1 mps 743 mmHg 75%
    22:00 +15°C° 0 mm 1 mps 743 mmHg 77%
    23:00 +14°C° 0 mm 1 mps 743 mmHg 79%

    18 December, Monday

    Time Temperature Precipitation Wind Pressure Humidity
    00:00 +14°C° 0 mm 1 mps 742 mmHg 80%
    01:00 +14°C° 0 mm 1 mps 742 mmHg 82%
    02:00 +13°C° 0 mm 1 mps 742 mmHg 83%
    03:00 +13°C° 0 mm 1 mps 743 mmHg 84%
    04:00 +13°C° 0 mm 1 mps 743 mmHg 84%
    05:00 +13°C° 0 mm 1 mps 743 mmHg 85%
    06:00 +14°C° 0 mm 1 mps 744 mmHg 82%
    07:00 +15°C° 0 mm 2 mps 744 mmHg 78%
    08:00 +16°C° 0 mm 2 mps 745 mmHg 75%
    09:00 +17°C° 0 mm 3 mps 745 mmHg 68%
    10:00 +19°C° 0 mm 3 mps 745 mmHg 62%
    11:00 +20°C° 0 mm 3 mps 745 mmHg 55%
    12:00 +21°C° 0 mm 3 mps 745 mmHg 53%
    13:00 +21°C° 0 mm 3 mps 744 mmHg 51%
    14:00 +22°C° 0 mm 3 mps 744 mmHg 48%
    15:00 +21°C° 0 mm 3 mps 744 mmHg 51%
    16:00 +19°C° 0 mm 4 mps 745 mmHg 54%
    17:00 +18°C° 0 mm 4 mps 745 mmHg 56%
    18:00 +17°C° 0 mm 4 mps 746 mmHg 56%
    19:00 +15°C° 0 mm 5 mps 747 mmHg 55%
    20:00 +14°C° 0 mm 5 mps 748 mmHg 55%
    21:00 +13°C° 0 mm 5 mps 748 mmHg 56%
    22:00 +12°C° 0 mm 5 mps 749 mmHg 57%
    23:00 +12°C° 0 mm 4 mps 749 mmHg 58%
    Show more